Poteau, OK

8:02 PM CDT on March 27, 2017 (GMT -0500)
Kerr

Weather History for KRKR - January, 2014

Change the Weather History Date:

Sunday, January 5, 2014

  Actual Average (KFSM) Record (KFSM)
Temperature  
Mean Temperature 30 °F -  
Max Temperature 42 °F 48 °F 73 °F (1916)
Min Temperature 17 °F 29 °F -5 °F (1884)
Degree Days  
Heating Degree Days 36    
Moisture  
Dew Point 23 °F    
Average Humidity 84    
Maximum Humidity 100    
Minimum Humidity 58    
Precipitation  
Precipitation 0.12 in - - ()
Sea Level Pressure  
Sea Level Pressure 30.10 in    
Wind  
Wind Speed 3 mph (NNW)    
Max Wind Speed 12 mph    
Max Gust Speed 20 mph    
Visibility 8 miles    
Events Rain , Snow    
Averages and records for this station are not official NWS values.
T = Trace of Precipitation, MM = Missing Value Source: NWS Daily Summary

Daily Weather History Graph

Daily Weather History Graph

Search for Another Location

Airport or City:

Trip Planner

Search our weather history database for the weather conditions in past years. The results will help you decide how hot, cold, wet, or windy it might be!

Date:

Astronomy

Jan. 05, 2014 Rise Set
Actual Time 7:27 AM CST 5:21 PM CST
Civil Twilight 6:59 AM CST 5:49 PM CST
Nautical Twilight 6:27 AM CST 6:20 PM CST
Astronomical Twilight 5:56 AM CST 6:51 PM CST
Moon 10:21 AM CST (1/5) 10:36 PM CST (1/5)
Length of Visible Light 10h 49m
Length of Day
9h 54m
Waxing Crescent, 25% of the Moon is Illuminated
Jan 5
Waxing Crescent
Jan 7
First Quarter
Jan 15
Full
Jan 23
Last Quarter
Jan 30
New

Hourly Weather History & Observations

Time (CST) Temp. Windchill Dew Point Humidity Pressure Visibility Wind Dir Wind Speed Gust Speed Precip Events Conditions
12:15 AM 42.8 °F 38.6 °F 37.4 °F 81% 29.78 in 10.0 mi North 6.9 mph - N/A   Light Drizzle
12:35 AM 42.8 °F 40.1 °F 37.4 °F 81% 29.78 in 10.0 mi North 4.6 mph - N/A Rain Light Rain
12:55 AM 41.0 °F 36.4 °F 37.4 °F 87% 29.77 in 10.0 mi North 6.9 mph - N/A Rain Light Rain
1:15 AM 41.0 °F 38.0 °F 37.4 °F 87% 29.77 in 10.0 mi North 4.6 mph - 0.01 in Rain Light Rain
1:35 AM 41.0 °F 38.0 °F 37.4 °F 87% 29.77 in 10.0 mi NNE 4.6 mph - 0.02 in Rain Rain
1:55 AM 41.0 °F 38.0 °F 39.2 °F 93% 29.77 in 10.0 mi North 4.6 mph - 0.02 in Rain Rain
2:15 AM 41.0 °F - 39.2 °F 93% 29.78 in 7.0 mi Calm Calm - N/A Rain Light Rain
2:35 AM 41.0 °F - 41.0 °F 100% 29.78 in 7.0 mi Calm Calm - 0.02 in Rain Light Rain
2:55 AM 41.0 °F 38.0 °F 41.0 °F 100% 29.78 in 5.0 mi East 4.6 mph - 0.02 in Rain Heavy Rain
3:15 AM 41.0 °F 39.0 °F 41.0 °F 100% 29.79 in 5.0 mi SE 3.5 mph - N/A   Heavy Drizzle
3:35 AM 41.0 °F - 41.0 °F 100% 29.79 in 5.0 mi Calm Calm - N/A Rain Heavy Rain
3:55 AM 41.0 °F - 41.0 °F 100% 29.80 in 5.0 mi Calm Calm - 0.02 in Rain Light Rain
4:15 AM 35.6 °F 28.0 °F 35.6 °F 100% 29.81 in 4.0 mi West 10.4 mph - N/A Rain Light Rain
4:35 AM 35.6 °F 28.6 °F 35.6 °F 100% 29.83 in 3.0 mi West 9.2 mph - 0.01 in Rain Light Rain
4:55 AM 33.8 °F 25.3 °F 32.0 °F 93% 29.84 in 2.5 mi West 11.5 mph 19.6 mph 0.03 in   Unknown
5:15 AM 33.8 °F 25.8 °F 32.0 °F 93% 29.85 in 2.5 mi West 10.4 mph 17.3 mph 0.02 in   Unknown
5:35 AM 32.0 °F - 32.0 °F 100% 29.86 in 4.0 mi Calm Calm - 0.03 in   Unknown
5:55 AM 32.0 °F - 32.0 °F 100% 29.87 in 4.0 mi Calm Calm - 0.03 in   Unknown
6:15 AM 32.0 °F - 32.0 °F 100% 29.89 in 4.0 mi Calm Calm - N/A   Unknown
6:35 AM 32.0 °F - 30.2 °F 93% 29.90 in 5.0 mi Calm Calm - N/A   Mist
6:55 AM 32.0 °F - 30.2 °F 93% 29.92 in 7.0 mi Calm Calm - N/A   Unknown
7:15 AM 30.2 °F - 28.4 °F 93% 29.94 in 10.0 mi Calm Calm - N/A   Unknown
7:35 AM 28.4 °F - 26.6 °F 93% 29.95 in 10.0 mi Calm Calm - N/A   Unknown
7:55 AM 28.4 °F - 26.6 °F 93% 29.97 in 10.0 mi Calm Calm - N/A   Unknown
8:15 AM 26.6 °F - 24.8 °F 93% 29.99 in 10.0 mi Calm Calm - N/A   Unknown
8:35 AM 26.6 °F - 23.0 °F 86% 30.02 in 7.0 mi Calm Calm - N/A   Unknown
8:55 AM 26.6 °F - 23.0 °F 86% 30.03 in 7.0 mi Calm Calm - N/A   Unknown
9:15 AM 26.6 °F - 21.2 °F 80% 30.05 in 7.0 mi Calm Calm - N/A   Unknown
9:35 AM 24.8 °F - 21.2 °F 86% 30.06 in 10.0 mi Calm Calm - N/A   Unknown
9:55 AM 24.8 °F - 21.2 °F 86% 30.08 in 10.0 mi Calm Calm - N/A   Unknown
10:15 AM 24.8 °F - 21.2 °F 86% 30.10 in 10.0 mi Calm Calm - N/A   Unknown
10:35 AM 24.8 °F - 19.4 °F 80% 30.11 in 10.0 mi Calm Calm - N/A   Unknown
10:55 AM 24.8 °F - 19.4 °F 80% 30.12 in 10.0 mi Calm Calm - N/A Snow Light Snow
11:15 AM 23.0 °F - 19.4 °F 86% 30.13 in 10.0 mi Calm Calm - N/A Snow Light Snow
11:35 AM 23.0 °F - 19.4 °F 86% 30.13 in 10.0 mi Calm Calm - N/A Snow Light Snow
11:55 AM 23.0 °F - 17.6 °F 80% 30.13 in 10.0 mi Calm Calm - N/A Snow Light Snow
12:15 PM 23.0 °F - 19.4 °F 86% 30.14 in 5.0 mi Calm Calm - N/A Snow Light Snow
12:35 PM 23.0 °F - 19.4 °F 86% 30.15 in 5.0 mi Calm Calm - N/A Snow Light Snow
12:55 PM 23.0 °F - 17.6 °F 80% 30.15 in 5.0 mi Calm Calm - N/A Snow Light Snow
1:15 PM 23.0 °F - 17.6 °F 80% 30.16 in 5.0 mi Calm Calm - N/A Snow Light Snow
1:35 PM 23.0 °F - 17.6 °F 80% 30.17 in 7.0 mi Calm Calm - N/A Snow Light Snow
1:55 PM 23.0 °F - 19.4 °F 86% 30.17 in 10.0 mi Calm Calm - N/A Snow Light Snow
2:15 PM 24.8 °F - 19.4 °F 80% 30.19 in 10.0 mi Calm Calm - N/A Snow Light Snow
2:35 PM 23.0 °F - 19.4 °F 86% 30.20 in 10.0 mi Calm Calm - N/A Snow Light Snow
2:55 PM 24.8 °F - 17.6 °F 74% 30.21 in 10.0 mi Calm Calm - N/A   Unknown
3:15 PM 24.8 °F - 19.4 °F 80% 30.23 in 10.0 mi Calm Calm - N/A Snow Light Snow
3:35 PM 23.0 °F - 17.6 °F 80% 30.25 in 10.0 mi Calm Calm - N/A Snow Light Snow
3:55 PM 23.0 °F - 17.6 °F 80% 30.26 in 10.0 mi Calm Calm - N/A   Unknown
4:15 PM 23.0 °F - 17.6 °F 80% 30.29 in 10.0 mi Calm Calm - N/A Snow Light Snow
4:35 PM 23.0 °F - 17.6 °F 80% 30.31 in 10.0 mi Calm Calm - N/A Snow Light Snow
4:55 PM 23.0 °F - 17.6 °F 80% 30.32 in 10.0 mi Calm Calm - N/A   Unknown
5:15 PM 23.0 °F - 17.6 °F 80% 30.34 in 10.0 mi Calm Calm - N/A   Unknown
5:35 PM 23.0 °F - 15.8 °F 74% 30.36 in 10.0 mi Calm Calm - N/A   Unknown
5:55 PM 23.0 °F - 15.8 °F 74% 30.38 in 10.0 mi Calm Calm - N/A   Unknown
6:15 PM 21.2 °F - 15.8 °F 80% 30.39 in 10.0 mi Calm Calm - N/A   Unknown
6:35 PM 21.2 °F - 14.0 °F 74% 30.41 in 10.0 mi Calm Calm - N/A   Unknown
6:55 PM 21.2 °F - 14.0 °F 74% 30.41 in 10.0 mi Calm Calm - N/A   Unknown
7:15 PM 21.2 °F - 12.2 °F 68% 30.44 in 10.0 mi Calm Calm - N/A   Unknown
7:35 PM 19.4 °F - 12.2 °F 74% 30.46 in 10.0 mi Calm Calm - N/A   Unknown
7:55 PM 19.4 °F - 10.4 °F 68% 30.47 in 10.0 mi Calm Calm - N/A   Unknown
8:15 PM 19.4 °F - 10.4 °F 68% 30.48 in 10.0 mi Calm Calm - N/A   Unknown
8:35 PM 19.4 °F - 8.6 °F 63% 30.49 in 10.0 mi Calm Calm - N/A   Unknown
8:55 PM 19.4 °F - 8.6 °F 63% 30.51 in 10.0 mi Calm Calm - N/A   Unknown
9:15 PM 17.6 °F - 6.8 °F 63% 30.52 in 10.0 mi Calm Calm - N/A   Unknown
9:35 PM 17.6 °F - 5.0 °F 58% 30.53 in 10.0 mi Calm Calm - N/A   Unknown
9:55 PM 17.6 °F - 5.0 °F 58% 30.54 in 10.0 mi Calm Calm - N/A   Unknown